SCP
0 0 0 0 0 0 0 0 0 0 0 0 0 0 0 0 0 0 0 0 0 0 0 0 0 -0 -0 0 0 0 0 0 0 -0 0 0 -0 -0 -0 0 0 0 0
0 0 0 0 0 0 0 0 0 0 0 0 0 0 0 0 0 0 0 -0 -0 -0 -0 -0 0 0 0 0 0 0 0 0 0 0 -0 0 0 -0 -0 -0 0 0 0
0 0 0 0 0 0 0 0 0 0 0 0 0 0 0 0 0 0 -0 -0 -0 -0 -0 -0 -0 0 0 0 0 0 0 0 0 0 -0 -0 0 0 -0 -0 -0 -0 0
0 0 0 0 0 0 0 0 0 0 0 0 0 0 0 0 0 0 0 0 -0 -0 -0 0 0 0 0 0 0 0 0 0 0 0 0 -0 -0 0 0 0 -0 -0 -0
0 0 0 0 0 0 0 0 0 0 0 0 0 0 0 0 0 0 0 0 0 0 0 0 0 0 -0 0 0 0 0 0 0 0 0 0 -0 -0 -0 0 0 -0 -0
0 0 0 0 0 0 0 0 0 0 0 0 0 0 0 0 0 0 0 0 0 0 0 0 0 0 -0 0 0 0 0 0 0 0 0 0 0 0 0 0 0 0 0
0 0 0 0 0 0 0 0 0 0 0 0 0 0 0 0 0 0 0 0 0 0 0 0 0 0 0 0 0 0 0 0 0 0 0 0 0 0 0 0 0 0 0
0 0 0 0 0 0 0 0 0 0 0 0 0 0 0 0 0 0 0 0 0 0 0 0 0 0 0 0 0 0 0 0 0 0 0 0 0 0 0 0 0 0 0
0 0 0 0 0 0 0 0 0 0 0 0 0 0 0 0 0 0 0 0 0 0 0 0 0 0 0 -0 0 0 0 0 0 0 0 0 0 0 0 0 0 0 0
0 0 0 0 0 0 0 0 0 0 0 0 0 0 0 0 0 0 0 0 0 0 0 0 0 0 0 0 0 0 0 0 0 0 0 0 0 0 0 0 0 0 0
0 0 0 0 0 0 0 0 0 0 0 0 0 0 0 0 0 0 0 0 0 0 0 0 0 0 -0 0 0 0 0 0 0 0 0 0 0 0 0 0 0 0 0
0 0 0 0 0 0 0 0 0 0 0 0 0 0 0 0 0 0 0 0 0 0 0 0 0 -0 -0 0 0 0 0 0 0 0 0 0 0 0 0 0 0 0 0
0 0 0 0 0 0 0 0 0 0 0 0 0 0 0 0 0 0 0 0 0 0 0 0 0 0 0 0 0 0 0 0 0 0 0 0 0 0 0 0 0 0 0
0 0 0 0 0 0 0 0 0 0 0 0 0 0 0 0 0 0 0 0 0 0 0 0 0 0 0 0 0 0 0 0 0 0 0 0 0 0 0 0 0 0 0
0 0 0 0 0 0 0 0 0 0 0 0 0 0 0 0 0 0 0 0 0 0 0 -0 -0 -0 0 0 0 0 0 0 0 0 0 0 0 0 0 0 0 0 0
0 0 0 0 0 0 0 0 0 0 0 0 0 0 0 0 0 0 0 0 0 0 0 -0 -0 0 0 0 0 0 0 0 0 0 0 0 0 0 0 0 0 0 0
0 0 0 0 0 0 0 0 0 0 0 0 0 0 0 0 0 0 0 0 0 0 0 0 0 0 0 0 0 0 0 0 0 0 0 0 0 0 0 0 0 0 0
0 0 0 0 0 0 0 0 0 0 0 0 0 0 0 0 0 0 0 0 0 0 0 0 0 0 0 0 0 0 0 0 0 0 0 0 0 0 0 0 0 0 0
0 0 0 0 0 0 0 0 0 0 0 0 0 0 0 0 0 0 0 0 0 0 0 0 0 0 0 0 0 0 0 0 0 0 0 0 0 0 0 0 0 0 0
0 0 0 0 0 0 0 0 0 0 0 0 0 0 0 0 0 0 0 0 0 0 0 0 0 0 0 0 0 0 0 0 0 0 0 0 0 0 0 0 0 0 0
0 0 0 0 0 0 0 0 0 0 0 0 0 0 0 0 0 0 0 0 0 0 0 0 0 0 0 0 0 0 0 0 0 0 0 0 0 0 0 0 0 0 0
0 0 0 0 0 0 0 0 0 0 0 0 0 0 0 0 0 0 0 0 0 0 0 0 0 0 0 0 0 0 0 0 0 0 0 0 0 0 0 0 0 0 0
0 0 0 0 0 0 0 0 0 0 0 0 0 0 0 0 0 0 0 0 0 0 0 0 0 0 0 0 0 0 0 0 0 0 0 0 0 0 0 0 0 0 0
0 0 0 0 0 0 0 0 0 0 0 0 0 0 0 0 0 0 0 0 0 0 0 0 0 0 0 0 0 0 0 0 0 0 0 0 0 0 0 0 0 0 0
0 0 0 0 0 0 0 0 0 0 0 0 0 0 -0 -0 0 -0 0 0 0 0 0 0 0 0 0 0 0 0 0 0 0 0 0 0 0 0 0 0 0 0 0
0 0 0 0 0 0 0 0 0 0 0 0 0 -0 -0 0 0 0 0 0 0 0 0 0 0 0 0 0 0 0 0 0 0 0 0 0 0 0 0 0 0 0 0
Wind_Speed_500mb
19 16 11 7 3 6 12 18 23 27 30 33 35 38 41 45 50 56 61 64 68 71 71 72 73 74 76 73 67 67 69 69 81 96 91 93 98 96 87 76 69 66 62
27 22 15 9 7 11 18 24 28 32 36 39 42 45 49 52 57 63 67 71 75 78 75 72 73 75 79 82 83 80 77 75 78 96 93 92 92 96 95 90 83 76 73
32 27 21 16 14 16 22 28 33 37 42 46 48 50 53 57 63 67 71 75 78 79 80 80 80 80 82 82 81 83 83 78 77 80 93 74 87 87 95 93 91 89 81
38 33 27 24 23 24 26 30 35 39 44 48 49 53 55 59 65 68 71 75 78 79 80 83 85 83 81 79 78 77 77 70 66 71 79 80 69 76 84 90 94 85 89
44 41 35 34 33 31 30 33 37 42 48 52 53 56 57 61 65 69 73 76 79 82 84 85 83 81 78 72 62 62 60 63 67 67 69 71 66 54 58 69 76 73 85
48 45 46 46 41 38 38 37 42 48 54 57 58 60 60 62 66 68 72 77 80 83 86 84 81 79 71 66 58 53 53 60 66 70 70 72 75 67 65 61 61 63 73
52 53 56 54 50 46 43 41 47 54 59 60 60 61 62 62 66 70 73 76 79 81 81 79 78 71 65 62 60 53 52 51 52 59 70 69 76 69 70 75 76 85 96
56 62 62 59 55 51 48 47 52 60 61 61 61 61 62 63 68 70 73 77 78 78 75 72 68 66 63 55 57 60 59 63 61 58 64 71 70 66 61 65 64 67 75
59 62 61 60 58 54 52 50 56 60 61 61 63 62 64 64 67 70 73 76 76 74 69 63 64 66 60 53 62 70 73 74 67 60 60 60 58 55 54 60 67 74 85
49 49 53 57 58 56 53 51 56 60 64 64 64 64 64 66 66 69 70 69 70 69 69 71 70 57 58 59 64 69 77 79 78 79 76 79 75 66 58 59 66 68 74
45 51 54 58 59 57 54 53 59 62 65 64 66 64 62 63 64 62 63 57 57 64 68 71 72 65 61 65 68 77 84 86 86 82 78 65 62 71 80 76 69 72 79
48 54 57 60 59 58 56 56 59 64 65 65 66 64 61 61 60 57 57 42 46 55 63 71 73 71 65 66 67 67 65 66 73 75 78 80 84 84 82 79 78 79 80
51 57 59 58 58 58 58 59 60 64 65 64 64 64 64 61 55 49 47 47 44 51 59 59 63 75 72 68 64 57 56 57 59 65 65 66 64 64 66 70 73 76 81
55 58 59 58 57 58 58 59 63 59 58 60 60 61 63 62 55 50 48 54 56 58 69 72 64 64 59 54 52 51 52 52 54 56 59 61 63 63 63 59 60 62 71
57 58 57 56 55 55 56 58 57 56 57 59 56 56 58 61 53 43 43 46 50 57 59 59 61 59 55 51 48 46 47 48 51 53 56 59 62 59 62 58 59 62 69
58 57 54 55 55 56 59 57 53 55 55 53 49 46 49 51 42 38 40 41 48 54 52 54 53 53 54 54 54 53 49 48 49 51 53 55 59 59 59 59 61 66 76
55 53 54 55 56 59 60 56 55 47 50 48 46 49 49 44 36 35 36 38 41 42 46 46 48 50 52 54 56 57 58 53 50 49 53 55 56 57 61 61 62 66 74
50 54 57 58 59 60 56 54 54 55 55 41 39 46 49 38 38 30 34 39 37 34 38 41 44 47 49 53 55 58 59 59 56 54 55 55 56 55 58 60 61 64 67
51 53 54 56 58 56 55 56 54 53 52 50 39 35 44 40 35 34 34 36 40 39 40 41 43 46 48 50 53 57 59 61 60 61 62 61 59 59 57 57 61 63 64
50 52 55 57 57 57 57 57 54 51 49 46 43 36 35 40 35 31 29 34 37 39 41 44 45 47 49 51 53 56 60 61 64 66 69 69 64 60 59 58 56 57 58
50 53 57 59 58 56 57 55 52 50 48 44 41 35 34 38 38 36 35 35 40 42 45 47 49 50 49 50 51 53 56 59 64 69 73 73 65 61 57 55 54 53 52
53 56 58 59 57 56 53 52 51 50 46 44 38 34 34 36 38 39 40 41 44 46 47 50 51 50 48 48 50 51 53 56 62 69 73 72 63 58 54 52 49 47 44
52 53 52 52 51 52 52 50 49 48 45 41 38 37 35 37 40 42 44 45 47 46 45 47 49 48 45 43 42 44 48 50 56 64 69 67 60 54 50 47 44 41 36
46 46 47 47 47 47 47 45 44 44 42 41 39 40 41 43 44 44 44 45 45 45 43 43 44 44 43 41 39 37 38 38 47 58 60 57 54 49 45 40 36 33 29
36 37 37 37 37 38 38 38 40 41 42 43 43 43 44 45 45 43 42 43 42 42 39 39 39 38 38 38 36 34 33 30 41 54 49 46 44 42 38 35 32 29 25
29 30 30 30 32 34 36 37 38 39 40 40 42 43 44 44 43 41 41 41 42 40 40 38 35 34 35 34 32 30 29 34 34 46 38 39 39 38 36 33 30 27 25
Wind_Direction_500mb
212 208 210 221 294 351 350 344 339 335 333 330 329 328 328 328 328 328 329 329 328 325 322 318 316 314 311 308 302 295 291 288 286 287 284 286 288 291 290 286 284 284 282
219 219 224 243 288 328 332 331 329 328 328 327 325 325 325 326 326 327 327 327 327 325 322 318 314 311 308 307 306 302 296 292 290 290 292 287 282 286 287 287 283 279 278
224 225 229 246 274 298 315 324 326 326 326 324 321 320 321 323 324 325 326 326 325 323 319 317 314 311 307 305 302 300 299 298 295 292 292 292 287 283 286 286 285 282 277
228 232 240 253 268 287 303 316 321 320 319 316 317 319 320 321 322 323 323 323 322 320 317 315 314 312 310 307 303 298 294 290 287 286 288 290 290 290 285 288 288 286 285
234 239 248 256 265 275 289 300 310 317 319 316 316 317 318 320 322 322 322 321 320 318 316 315 314 312 310 307 303 300 296 291 287 287 288 290 289 290 289 292 291 294 287
238 247 250 255 261 268 277 289 302 310 315 314 314 315 316 319 321 321 322 320 318 317 316 316 314 313 311 307 301 293 289 289 288 285 285 283 283 287 279 278 283 291 294
243 247 251 255 259 263 271 284 297 305 309 309 310 311 313 318 320 322 321 318 317 317 316 315 316 315 314 313 308 299 296 292 285 287 284 282 283 283 282 282 275 273 274
249 252 253 255 258 262 272 282 297 303 305 305 308 310 313 319 321 321 319 318 318 316 315 318 319 318 320 309 308 308 309 306 301 294 292 293 292 295 293 295 297 294 289
257 259 259 258 258 264 271 283 294 299 302 303 307 310 313 317 319 319 320 318 316 315 319 323 323 320 320 309 306 302 299 298 302 300 291 285 285 286 285 285 282 281 281
269 270 261 259 260 263 270 281 292 301 301 302 306 309 311 314 318 319 319 316 317 320 324 324 325 311 307 304 300 299 298 300 303 301 299 298 298 293 285 276 273 275 281
270 265 262 261 261 263 271 282 294 298 299 300 303 305 308 312 315 317 317 319 322 322 315 315 317 315 309 306 300 295 292 301 297 295 293 292 290 290 287 285 279 273 275
270 263 261 260 261 266 274 283 292 296 297 297 300 302 306 310 313 319 319 319 313 309 314 315 319 319 309 304 300 296 295 294 288 288 288 287 289 288 287 286 286 283 278
269 260 258 260 263 269 275 284 292 293 293 294 298 301 304 306 313 317 321 327 320 316 313 313 299 303 307 307 308 304 300 297 293 293 292 292 296 291 285 282 281 282 282
265 260 258 260 266 272 278 286 291 290 288 291 295 299 301 306 318 324 325 331 328 322 310 312 319 320 318 314 309 304 301 301 302 304 303 301 305 306 301 296 289 288 284
264 262 261 264 269 274 280 287 288 286 288 290 292 295 303 310 315 317 315 317 319 307 311 323 327 328 332 332 329 323 318 315 313 312 311 313 314 311 307 304 296 295 284
265 264 266 269 272 278 284 284 282 284 285 288 292 291 291 291 301 306 309 310 303 306 320 326 330 337 344 346 344 339 337 332 328 324 322 321 322 316 312 307 298 291 288
266 266 268 272 277 280 281 281 282 275 280 285 288 288 286 292 295 301 304 305 304 317 320 326 333 339 342 345 347 347 344 342 336 333 331 330 328 326 317 308 304 302 299
269 272 275 277 277 278 278 278 279 282 285 280 281 284 286 286 292 299 297 304 310 309 318 327 333 338 340 342 345 345 346 347 344 340 337 333 332 328 320 316 313 308 307
270 273 275 276 277 277 276 276 277 278 281 288 287 278 280 286 289 293 295 302 309 316 322 329 334 335 337 340 342 343 346 348 347 347 343 338 334 331 325 321 317 313 313
276 275 274 274 273 274 274 274 274 276 278 282 284 283 275 280 283 282 289 298 305 311 317 322 328 329 334 337 338 341 344 347 347 348 348 342 336 332 328 325 322 317 310
279 275 274 273 272 272 270 270 272 273 275 276 278 278 278 282 291 293 296 301 306 310 314 318 322 323 329 331 332 337 341 344 346 346 348 342 336 333 331 328 325 321 315
283 280 277 275 273 269 268 267 268 270 271 273 274 273 274 278 284 289 294 299 302 307 310 312 314 318 323 326 329 331 338 343 345 346 347 340 337 335 334 333 331 329 324
289 285 281 277 273 270 267 266 264 266 267 269 273 274 274 278 282 288 293 297 299 303 305 308 310 313 316 320 324 326 332 342 343 346 345 338 338 339 339 338 338 337 337
298 294 289 281 274 271 270 266 263 263 266 269 272 275 278 282 285 290 294 297 299 301 305 307 309 312 316 320 322 324 329 339 342 347 342 340 342 343 343 344 345 346 349
316 310 299 288 281 277 272 269 266 266 267 271 275 277 280 283 287 290 294 294 298 300 305 305 309 312 316 319 321 322 325 336 348 343 338 346 350 350 351 352 354 355 358
318 312 306 297 292 289 283 278 273 272 272 274 276 279 281 284 287 290 292 293 295 298 301 303 307 309 313 316 319 319 320 332 354 331 342 353 359 5 8 7 8 9 11
Wind_Speed_850mb
19 16 11 7 3 6 12 18 23 27 30 33 35 38 41 45 50 56 61 64 68 71 71 72 73 74 76 73 67 67 69 69 81 96 91 93 98 96 87 76 69 66 62
27 22 15 9 7 11 18 24 28 32 36 39 42 45 49 52 57 63 67 71 75 78 75 72 73 75 79 82 83 80 77 75 78 96 93 92 92 96 95 90 83 76 73
32 27 21 16 14 16 22 28 33 37 42 46 48 50 53 57 63 67 71 75 78 79 80 80 80 80 82 82 81 83 83 78 77 80 93 74 87 87 95 93 91 89 81
38 33 27 24 23 24 26 30 35 39 44 48 49 53 55 59 65 68 71 75 78 79 80 83 85 83 81 79 78 77 77 70 66 71 79 80 69 76 84 90 94 85 89
44 41 35 34 33 31 30 33 37 42 48 52 53 56 57 61 65 69 73 76 79 82 84 85 83 81 78 72 62 62 60 63 67 67 69 71 66 54 58 69 76 73 85
48 45 46 46 41 38 38 37 42 48 54 57 58 60 60 62 66 68 72 77 80 83 86 84 81 79 71 66 58 53 53 60 66 70 70 72 75 67 65 61 61 63 73
52 53 56 54 50 46 43 41 47 54 59 60 60 61 62 62 66 70 73 76 79 81 81 79 78 71 65 62 60 53 52 51 52 59 70 69 76 69 70 75 76 85 96
56 62 62 59 55 51 48 47 52 60 61 61 61 61 62 63 68 70 73 77 78 78 75 72 68 66 63 55 57 60 59 63 61 58 64 71 70 66 61 65 64 67 75
59 62 61 60 58 54 52 50 56 60 61 61 63 62 64 64 67 70 73 76 76 74 69 63 64 66 60 53 62 70 73 74 67 60 60 60 58 55 54 60 67 74 85
49 49 53 57 58 56 53 51 56 60 64 64 64 64 64 66 66 69 70 69 70 69 69 71 70 57 58 59 64 69 77 79 78 79 76 79 75 66 58 59 66 68 74
45 51 54 58 59 57 54 53 59 62 65 64 66 64 62 63 64 62 63 57 57 64 68 71 72 65 61 65 68 77 84 86 86 82 78 65 62 71 80 76 69 72 79
48 54 57 60 59 58 56 56 59 64 65 65 66 64 61 61 60 57 57 42 46 55 63 71 73 71 65 66 67 67 65 66 73 75 78 80 84 84 82 79 78 79 80
51 57 59 58 58 58 58 59 60 64 65 64 64 64 64 61 55 49 47 47 44 51 59 59 63 75 72 68 64 57 56 57 59 65 65 66 64 64 66 70 73 76 81
55 58 59 58 57 58 58 59 63 59 58 60 60 61 63 62 55 50 48 54 56 58 69 72 64 64 59 54 52 51 52 52 54 56 59 61 63 63 63 59 60 62 71
57 58 57 56 55 55 56 58 57 56 57 59 56 56 58 61 53 43 43 46 50 57 59 59 61 59 55 51 48 46 47 48 51 53 56 59 62 59 62 58 59 62 69
58 57 54 55 55 56 59 57 53 55 55 53 49 46 49 51 42 38 40 41 48 54 52 54 53 53 54 54 54 53 49 48 49 51 53 55 59 59 59 59 61 66 76
55 53 54 55 56 59 60 56 55 47 50 48 46 49 49 44 36 35 36 38 41 42 46 46 48 50 52 54 56 57 58 53 50 49 53 55 56 57 61 61 62 66 74
50 54 57 58 59 60 56 54 54 55 55 41 39 46 49 38 38 30 34 39 37 34 38 41 44 47 49 53 55 58 59 59 56 54 55 55 56 55 58 60 61 64 67
51 53 54 56 58 56 55 56 54 53 52 50 39 35 44 40 35 34 34 36 40 39 40 41 43 46 48 50 53 57 59 61 60 61 62 61 59 59 57 57 61 63 64
50 52 55 57 57 57 57 57 54 51 49 46 43 36 35 40 35 31 29 34 37 39 41 44 45 47 49 51 53 56 60 61 64 66 69 69 64 60 59 58 56 57 58
50 53 57 59 58 56 57 55 52 50 48 44 41 35 34 38 38 36 35 35 40 42 45 47 49 50 49 50 51 53 56 59 64 69 73 73 65 61 57 55 54 53 52
53 56 58 59 57 56 53 52 51 50 46 44 38 34 34 36 38 39 40 41 44 46 47 50 51 50 48 48 50 51 53 56 62 69 73 72 63 58 54 52 49 47 44
52 53 52 52 51 52 52 50 49 48 45 41 38 37 35 37 40 42 44 45 47 46 45 47 49 48 45 43 42 44 48 50 56 64 69 67 60 54 50 47 44 41 36
46 46 47 47 47 47 47 45 44 44 42 41 39 40 41 43 44 44 44 45 45 45 43 43 44 44 43 41 39 37 38 38 47 58 60 57 54 49 45 40 36 33 29
36 37 37 37 37 38 38 38 40 41 42 43 43 43 44 45 45 43 42 43 42 42 39 39 39 38 38 38 36 34 33 30 41 54 49 46 44 42 38 35 32 29 25
29 30 30 30 32 34 36 37 38 39 40 40 42 43 44 44 43 41 41 41 42 40 40 38 35 34 35 34 32 30 29 34 34 46 38 39 39 38 36 33 30 27 25
Wind_Direction_850mb
212 208 210 221 294 351 350 344 339 335 333 330 329 328 328 328 328 328 329 329 328 325 322 318 316 314 311 308 302 295 291 288 286 287 284 286 288 291 290 286 284 284 282
219 219 224 243 288 328 332 331 329 328 328 327 325 325 325 326 326 327 327 327 327 325 322 318 314 311 308 307 306 302 296 292 290 290 292 287 282 286 287 287 283 279 278
224 225 229 246 274 298 315 324 326 326 326 324 321 320 321 323 324 325 326 326 325 323 319 317 314 311 307 305 302 300 299 298 295 292 292 292 287 283 286 286 285 282 277
228 232 240 253 268 287 303 316 321 320 319 316 317 319 320 321 322 323 323 323 322 320 317 315 314 312 310 307 303 298 294 290 287 286 288 290 290 290 285 288 288 286 285
234 239 248 256 265 275 289 300 310 317 319 316 316 317 318 320 322 322 322 321 320 318 316 315 314 312 310 307 303 300 296 291 287 287 288 290 289 290 289 292 291 294 287
238 247 250 255 261 268 277 289 302 310 315 314 314 315 316 319 321 321 322 320 318 317 316 316 314 313 311 307 301 293 289 289 288 285 285 283 283 287 279 278 283 291 294
243 247 251 255 259 263 271 284 297 305 309 309 310 311 313 318 320 322 321 318 317 317 316 315 316 315 314 313 308 299 296 292 285 287 284 282 283 283 282 282 275 273 274
249 252 253 255 258 262 272 282 297 303 305 305 308 310 313 319 321 321 319 318 318 316 315 318 319 318 320 309 308 308 309 306 301 294 292 293 292 295 293 295 297 294 289
257 259 259 258 258 264 271 283 294 299 302 303 307 310 313 317 319 319 320 318 316 315 319 323 323 320 320 309 306 302 299 298 302 300 291 285 285 286 285 285 282 281 281
269 270 261 259 260 263 270 281 292 301 301 302 306 309 311 314 318 319 319 316 317 320 324 324 325 311 307 304 300 299 298 300 303 301 299 298 298 293 285 276 273 275 281
270 265 262 261 261 263 271 282 294 298 299 300 303 305 308 312 315 317 317 319 322 322 315 315 317 315 309 306 300 295 292 301 297 295 293 292 290 290 287 285 279 273 275
270 263 261 260 261 266 274 283 292 296 297 297 300 302 306 310 313 319 319 319 313 309 314 315 319 319 309 304 300 296 295 294 288 288 288 287 289 288 287 286 286 283 278
269 260 258 260 263 269 275 284 292 293 293 294 298 301 304 306 313 317 321 327 320 316 313 313 299 303 307 307 308 304 300 297 293 293 292 292 296 291 285 282 281 282 282
265 260 258 260 266 272 278 286 291 290 288 291 295 299 301 306 318 324 325 331 328 322 310 312 319 320 318 314 309 304 301 301 302 304 303 301 305 306 301 296 289 288 284
264 262 261 264 269 274 280 287 288 286 288 290 292 295 303 310 315 317 315 317 319 307 311 323 327 328 332 332 329 323 318 315 313 312 311 313 314 311 307 304 296 295 284
265 264 266 269 272 278 284 284 282 284 285 288 292 291 291 291 301 306 309 310 303 306 320 326 330 337 344 346 344 339 337 332 328 324 322 321 322 316 312 307 298 291 288
266 266 268 272 277 280 281 281 282 275 280 285 288 288 286 292 295 301 304 305 304 317 320 326 333 339 342 345 347 347 344 342 336 333 331 330 328 326 317 308 304 302 299
269 272 275 277 277 278 278 278 279 282 285 280 281 284 286 286 292 299 297 304 310 309 318 327 333 338 340 342 345 345 346 347 344 340 337 333 332 328 320 316 313 308 307
270 273 275 276 277 277 276 276 277 278 281 288 287 278 280 286 289 293 295 302 309 316 322 329 334 335 337 340 342 343 346 348 347 347 343 338 334 331 325 321 317 313 313
276 275 274 274 273 274 274 274 274 276 278 282 284 283 275 280 283 282 289 298 305 311 317 322 328 329 334 337 338 341 344 347 347 348 348 342 336 332 328 325 322 317 310
279 275 274 273 272 272 270 270 272 273 275 276 278 278 278 282 291 293 296 301 306 310 314 318 322 323 329 331 332 337 341 344 346 346 348 342 336 333 331 328 325 321 315
283 280 277 275 273 269 268 267 268 270 271 273 274 273 274 278 284 289 294 299 302 307 310 312 314 318 323 326 329 331 338 343 345 346 347 340 337 335 334 333 331 329 324
289 285 281 277 273 270 267 266 264 266 267 269 273 274 274 278 282 288 293 297 299 303 305 308 310 313 316 320 324 326 332 342 343 346 345 338 338 339 339 338 338 337 337
298 294 289 281 274 271 270 266 263 263 266 269 272 275 278 282 285 290 294 297 299 301 305 307 309 312 316 320 322 324 329 339 342 347 342 340 342 343 343 344 345 346 349
316 310 299 288 281 277 272 269 266 266 267 271 275 277 280 283 287 290 294 294 298 300 305 305 309 312 316 319 321 322 325 336 348 343 338 346 350 350 351 352 354 355 358
318 312 306 297 292 289 283 278 273 272 272 274 276 279 281 284 287 290 292 293 295 298 301 303 307 309 313 316 319 319 320 332 354 331 342 353 359 5 8 7 8 9 11